DECAYED

CZ-3B R/B, 40750 (Decayed)

Orbit data source: Space-Track

CZ-3B R/B, 40750 was space debris in LEO originally from a launch on Sat, 25 Jul 2015 UTC launched from the Xichang Space Center, China (XSC). Debris objects in space refer to the collection of defunct objects orbiting the Earth. Examples of debris include non-operational satellites, rocket bodies, and fragments generated from explosions, collisions, or faulty payload assembly.

Not visible in the next 10 days
Identifier
40750, 2015-037C
Orbit
Decayed
Country
Flag of CNCN / PRC
Related business
Manufacturer
CALT
Mission
Decayed spacecraft
Bus & Motor
CZ-3A STAGE 3, Unknown motor
Mass
~2,800 kg wet, ~2,800 kg dry
Launch date (UTC)
2015-07-25 (11 years ago)
Launch vehicle
Unknown
Launch site
Xichang Space Center, China (XSC)
Object type
Payload
Rocket body
Debris
Shape & HBR
Cyl + 1 Nozzle, 6.2 m
Radar Cross Section
32.704 m², Large (>1 m²)

Expand to show TLE details & history
Last TLE update: 2 months ago

TLE from 2 months ago
0 CZ-3B R/B
1 40750U 15037C   26097.18486634  .34520099  13706-4  50912-3 0  9999
2 40750  54.6270 358.8683 0191506  45.3045 316.3431 16.12741017209064
Epoch: 2026-04-07T04:26Z
TLE epoch observation values (Epoch: 2026-04-07T04:26:12.451Z)
Latitude
0.00001°
Longitude
96.85121°
Altitude
149.922 km
Speed
7.871 km/s
True Right ascension
23h 55m 28s
True Declination
0° 00' 00"
Sunlit
Object was in daylight at epoch
Visualization orbit readout
Latitude
Unknown
Longitude
Unknown
Altitude
Unknown
Speed
Unknown
Apparent Right ascension
Unknown
Apparent Declination
Unknown
Sunlit
N/A
Visualization observer readout
Local Sidereal Time
05:09:08
Azimuth
Unknown
Elevation
Unknown
Doppler factor
Unknown
Orbital elements
Apogee altitude
366.086 km
Perigee altitude
112.628 km
Semi-major axis
6,617.494 km
Eccentricity
0.01915
Inclination
54.627°
RAAN
358.8683°
Arg. of periapsis
45.3045°
True anomaly
314.80166°
Mean anomaly
316.3431°
Eccentric anomaly
315.57505°
Mean motion
4.03184 °/min
Orbital period
89.29 mins
BSTAR
0.00050912
Loading maneuver chart data...
Computing Atmospheric mass density...
Loading historical data...
Loading historical data...
Loading historical data...
Loading historical data...
Loading historical data...
Loading historical data...
Loading historical data...
Other satellites on launch #37 in the year 2015 (2015-07-25 UTC)

Documentation

Showing up to 5 results
|